Le nostre stazioni meteo in Italia

Pubblicità
Il mio iltempo24.it
Genova/Sestri, Italia (16120): Temperatura & dewpoint: 15.08.2019 14:00:00 - 21.08.2019 14:00:00 (CEST)Genova/Sestri, Italia (16120): velocità del vento: 15.08.2019 14:00:00 - 21.08.2019 14:00:00 (CEST)Genova/Sestri, Italia (16120): direzione del vento: 15.08.2019 14:00:00 - 21.08.2019 14:00:00 (CEST)Genova/Sestri, Italia (16120): reduced air pressure: 15.08.2019 14:00:00 - 21.08.2019 14:00:00 (CEST)Genova/Sestri, Italia (16120): visibility: 15.08.2019 14:00:00 - 21.08.2019 14:00:00 (CEST)
Data & Tempo tt [°C] td [°C] ff [km/h] ff [kn] dd ppp [hPa] vv [km]
21.08.2019 14:00:00 29,1 20,3 9 5 SSE 1017,8 10
21.08.2019 13:00:00 29,0 20,0 13 7 SO - 10
21.08.2019 12:00:00 29,0 18,0 11 6 SO - 10
21.08.2019 11:00:00 28,4 18,3 8 4 - 1018,4 10
21.08.2019 10:00:00 27,0 17,0 5 3 - - 10
21.08.2019 09:00:00 25,0 16,0 2 1 - - 10
21.08.2019 08:00:00 24,0 15,0 5 3 N - 10
21.08.2019 07:00:00 23,0 15,0 8 4 NNE - 10
21.08.2019 06:00:00 23,0 15,0 8 4 NNE - 10
21.08.2019 05:00:00 23,0 14,0 8 4 NNE - 10
21.08.2019 04:00:00 23,0 15,0 8 4 NNE - 10
21.08.2019 03:00:00 24,0 15,0 8 4 NNE - 10
21.08.2019 02:00:00 23,0 15,0 9 5 NNE - 10
21.08.2019 01:00:00 24,0 16,0 9 5 NNE - 10
21.08.2019 00:00:00 24,0 16,0 9 5 NNE - 10
20.08.2019 23:00:00 24,0 16,0 9 5 NNE - 10
20.08.2019 22:00:00 25,0 17,0 5 3 N - 10
20.08.2019 21:00:00 25,0 18,0 5 3 NE - 10
20.08.2019 20:00:00 26,0 22,0 4 2 - - 10
20.08.2019 19:00:00 27,0 21,0 8 4 SO - 10
20.08.2019 18:00:00 27,0 21,0 8 4 SO - 10
20.08.2019 17:00:00 28,0 21,0 8 4 SO - 10
20.08.2019 16:00:00 28,0 21,0 8 4 OSO - 10
20.08.2019 15:00:00 28,0 21,0 8 4 SSO - 10
20.08.2019 14:00:00 28,0 21,0 5 3 SO - 10
20.08.2019 13:00:00 27,0 21,0 8 4 SSO - 10
20.08.2019 12:00:00 27,0 21,0 5 3 S - 10
20.08.2019 11:00:00 27,0 21,0 8 4 SSE - 10
20.08.2019 10:00:00 26,0 21,0 5 3 SSE - 10
20.08.2019 09:00:00 26,0 21,0 5 3 NNE - 10
20.08.2019 08:00:00 24,0 20,0 9 5 NNE - 10
20.08.2019 07:00:00 23,0 21,0 8 4 NE - 10
20.08.2019 06:00:00 23,0 20,0 9 5 ENE - 10
20.08.2019 05:00:00 24,0 21,0 4 2 NNE - 10
20.08.2019 04:00:00 24,0 20,0 5 3 NNE - 10
20.08.2019 03:00:00 24,0 21,0 5 3 NNE - 10
20.08.2019 02:00:00 24,0 21,0 5 3 NNE - 10
20.08.2019 01:00:00 24,0 21,0 5 3 NNE - 10
20.08.2019 00:00:00 25,0 21,0 5 3 NNE - 10
19.08.2019 23:00:00 25,0 21,0 4 2 - - 10
19.08.2019 22:00:00 26,0 22,0 4 2 NO - 10
19.08.2019 21:00:00 25,0 22,0 4 2 S - 10
19.08.2019 20:00:00 26,0 21,0 2 1 - - 10
19.08.2019 19:00:00 26,0 22,0 5 3 OSO - 10
19.08.2019 18:00:00 27,0 22,0 9 5 SE - 10
19.08.2019 17:00:00 27,0 22,0 8 4 S - 10
19.08.2019 16:00:00 28,0 22,0 13 7 SSE - 10
19.08.2019 15:00:00 27,0 22,0 9 5 SSE - 10
19.08.2019 14:00:00 27,0 21,0 16 9 SSE - 10
19.08.2019 13:00:00 28,0 22,0 18 10 SE - 10
19.08.2019 12:00:00 27,0 21,0 13 7 SE - 10
19.08.2019 11:00:00 27,0 21,0 15 8 ESE - 10
19.08.2019 10:00:00 27,0 20,0 11 6 SE - 10
19.08.2019 09:00:00 25,0 19,0 5 3 NNE - 10
19.08.2019 08:00:00 23,0 19,0 8 4 NNE - 10
19.08.2019 07:00:00 22,0 19,0 8 4 NNE - 10
19.08.2019 06:00:00 22,0 18,0 9 5 NNE - 10
19.08.2019 05:00:00 22,0 19,0 9 5 NNE - 10
19.08.2019 04:00:00 22,0 9,0 8 4 N - 10
19.08.2019 03:00:00 22,0 18,0 9 5 NNE - 10
19.08.2019 02:00:00 22,0 18,0 9 5 NNE - 10
19.08.2019 01:00:00 23,0 18,0 9 5 NNE - 10
19.08.2019 00:00:00 23,0 18,0 9 5 NNE - 10
18.08.2019 23:00:00 24,0 19,0 8 4 NNE - 10
18.08.2019 22:00:00 24,0 19,0 5 3 NNO - 10
18.08.2019 21:00:00 24,0 20,0 2 1 - - 10
18.08.2019 20:00:00 25,0 20,0 4 2 - - 10
18.08.2019 19:00:00 25,0 20,0 4 2 - - 10
18.08.2019 18:00:00 26,0 20,0 5 3 S - 10
18.08.2019 17:00:00 27,0 20,0 8 4 S - 10
18.08.2019 16:00:00 27,0 20,0 8 4 S - 10
18.08.2019 15:00:00 27,0 20,0 8 4 S - 10
18.08.2019 14:00:00 27,0 20,0 9 5 S - 10
18.08.2019 13:00:00 26,0 21,0 9 5 S - 10
18.08.2019 12:00:00 26,0 20,0 8 4 SSE - 10
18.08.2019 11:00:00 26,0 21,0 13 7 SE - 10
18.08.2019 10:00:00 25,0 20,0 9 5 SE - 10
18.08.2019 09:00:00 23,0 20,0 4 2 - - 10
18.08.2019 08:00:00 23,0 20,0 8 4 NNE - 10
18.08.2019 07:00:00 23,0 19,0 9 5 NNE - 10
18.08.2019 06:00:00 22,0 19,0 9 5 NNE - 10
18.08.2019 05:00:00 23,0 19,0 8 4 NNE - 10
18.08.2019 04:00:00 23,0 19,0 8 4 NNE - 10
18.08.2019 03:00:00 23,0 20,0 8 4 NNE - 10
18.08.2019 02:00:00 23,0 20,0 5 3 NNE - 10
18.08.2019 01:00:00 24,0 20,0 8 4 NNE - 10
18.08.2019 00:00:00 24,0 20,0 8 4 NNE - 10
17.08.2019 23:00:00 25,0 20,0 5 3 NNE - 10
17.08.2019 22:00:00 25,0 21,0 4 2 S - 10
17.08.2019 21:00:00 25,0 20,0 4 2 - - 10
17.08.2019 20:00:00 25,0 21,0 4 2 - - 10
17.08.2019 19:00:00 26,0 21,0 4 2 - - 10
17.08.2019 18:00:00 26,0 21,0 5 3 SSE - 10
17.08.2019 17:00:00 26,0 21,0 5 3 S - 10
17.08.2019 16:00:00 27,0 21,0 8 4 - - 10
17.08.2019 15:00:00 27,0 20,0 8 4 S - 10
17.08.2019 14:00:00 27,0 21,0 5 3 S - 10
17.08.2019 13:00:00 28,0 21,0 9 5 S - 10
17.08.2019 12:00:00 27,0 21,0 15 8 SE - 10
17.08.2019 11:00:00 27,0 21,0 11 6 SSE - 10
17.08.2019 10:00:00 26,0 19,0 5 3 E - 10
17.08.2019 09:00:00 25,0 17,0 9 5 NNE - 10
17.08.2019 08:00:00 23,0 17,0 8 4 NE - 10
17.08.2019 07:00:00 22,0 17,0 8 4 NNE - 10
17.08.2019 06:00:00 22,0 18,0 9 5 NNE - 10
17.08.2019 05:00:00 - - - - - - -
17.08.2019 04:00:00 23,0 18,0 8 4 NNE - 10
17.08.2019 03:00:00 23,0 18,0 9 5 NNE - 10
17.08.2019 02:00:00 23,0 18,0 9 5 NNE - 10
17.08.2019 01:00:00 23,0 19,0 9 5 NNE - 10
17.08.2019 00:00:00 24,0 20,0 8 4 NNE - 10
16.08.2019 23:00:00 24,0 20,0 8 4 NNE - 10
16.08.2019 22:00:00 25,0 20,0 8 4 NE - 10
16.08.2019 21:00:00 25,0 19,0 4 2 SO - 10
16.08.2019 20:00:00 26,0 20,0 8 4 SO - 10
16.08.2019 19:00:00 26,0 20,0 9 5 OSO - 10
16.08.2019 18:00:00 27,0 20,0 11 6 SO - 10
16.08.2019 17:00:00 27,0 20,0 5 3 S - 10
16.08.2019 16:00:00 28,0 20,0 5 3 S - 10
16.08.2019 15:00:00 28,0 20,0 15 8 SSE - 10
16.08.2019 14:00:00 28,0 19,0 16 9 SE - 10
16.08.2019 13:00:00 28,0 20,0 9 5 S - 10
16.08.2019 12:00:00 28,0 18,0 11 6 S - 10
16.08.2019 11:00:00 28,0 18,0 8 4 SSO - 10
16.08.2019 10:00:00 26,0 17,0 9 5 NE - 10
16.08.2019 09:00:00 24,0 16,0 16 9 ENE - 10
16.08.2019 08:00:00 24,0 17,0 5 3 N - 10
16.08.2019 07:00:00 22,0 16,0 8 4 NNE - 10
16.08.2019 06:00:00 22,0 17,0 9 5 NNE - 10
16.08.2019 05:00:00 22,0 18,0 9 5 NNE - 10
16.08.2019 04:00:00 22,0 18,0 9 5 NNE - 10
16.08.2019 03:00:00 22,0 19,0 8 4 NNE - 10
16.08.2019 02:00:00 23,0 19,0 9 5 NNE - 10
16.08.2019 01:00:00 23,0 19,0 8 4 NNE - 10
16.08.2019 00:00:00 24,0 20,0 5 3 NE - 10
15.08.2019 23:00:00 24,0 20,0 4 2 - - 10
15.08.2019 22:00:00 25,0 20,0 5 3 S - 10
15.08.2019 21:00:00 25,0 20,0 4 2 - - 10
15.08.2019 20:00:00 25,0 21,0 5 3 S - 10
15.08.2019 19:00:00 26,0 21,0 5 3 S - 10
15.08.2019 18:00:00 27,0 21,0 8 4 SSE - 10
15.08.2019 17:00:00 27,0 21,0 15 8 SE - 10
15.08.2019 16:00:00 27,0 21,0 16 9 SE - 10
15.08.2019 15:00:00 27,0 21,0 18 10 SE - 10
15.08.2019 14:00:00 27,0 21,0 16 9 SSE - 10

tt = Temperatura
td = dewpoint
ff = velocità del vento
dd = direzione del vento
ppp = reduced air pressure
vv = visibility

Stazioni seguenti

WeatherPro
AMSI
MeteoEarth